UAL939 EGLL-KSFO

Flight info

Callsign UAL939
Flight time N/A
Altitude 34000
Route CPT L9 DIDZA N14 OKTAD DCT MEDOG DCT VATRY DCT PIKIL/M083F350 DCT 57N020W 57N030W 57N040W 56N050W DCT JANJO/N0481F360 DCT JOVIE DCT DUSMA/N0486F380 DCT YRL DCT MOT DCT SWTHN Q121 PIH/N0477F400 Q121 PARZZ Q138 FIMUV DCT LEGGS BDEGA4
Aircraft B772/H-SDE2E3FGHIJ5LORVWXY/LB1D1

Departure

Time 2026-05-04 09:37
Airport London Heathrow Airport (EGLL)

Arrival

Time N/A
Airport San Francisco International Airport (KSFO)
Time Latitude Longitude Altitude Speed Heading
2026-05-04 09:02 51.47267 -0.44205 91 ft 0 kts 270°
2026-05-04 09:25 51.47272 -0.44137 93 ft 4 kts 251°
2026-05-04 09:25 51.47283 -0.44099 92 ft 4 kts 234°
2026-05-04 09:26 51.47301 -0.44069 90 ft 4 kts 207°
2026-05-04 09:26 51.47319 -0.44059 94 ft 0 kts 180°
2026-05-04 09:29 51.47291 -0.44059 90 ft 5 kts 179°
2026-05-04 09:29 51.47254 -0.44059 94 ft 5 kts 179°
2026-05-04 09:29 51.47217 -0.44058 93 ft 5 kts 179°
2026-05-04 09:30 51.47179 -0.44057 90 ft 5 kts 180°
2026-05-04 09:30 51.47142 -0.44057 92 ft 5 kts 179°
2026-05-04 09:30 51.47105 -0.44057 90 ft 5 kts 179°
2026-05-04 09:30 51.47068 -0.44056 90 ft 5 kts 179°
2026-05-04 09:31 51.47031 -0.44056 95 ft 5 kts 180°
2026-05-04 09:31 51.46994 -0.44056 93 ft 5 kts 179°
2026-05-04 09:31 51.46956 -0.44056 95 ft 5 kts 180°
2026-05-04 09:31 51.46919 -0.44056 94 ft 5 kts 179°
2026-05-04 09:32 51.46882 -0.44055 94 ft 5 kts 180°
2026-05-04 09:32 51.46845 -0.44055 95 ft 5 kts 180°
2026-05-04 09:34 51.46558 -0.44052 95 ft 5 kts 179°
2026-05-04 09:34 51.46526 -0.44060 93 ft 5 kts 201°
2026-05-04 09:34 51.46503 -0.44096 92 ft 5 kts 239°
2026-05-04 09:34 51.46495 -0.44148 93 ft 5 kts 262°
2026-05-04 09:35 51.46494 -0.44176 90 ft 0 kts 266°
2026-05-04 09:35 51.46492 -0.44470 92 ft 65 kts 269°
2026-05-04 09:35 51.46488 -0.45629 91 ft 140 kts 270°
2026-05-04 09:35 51.46485 -0.47529 217 ft 190 kts 270°
2026-05-04 09:37 51.45724 -0.66865 3918 ft 269 kts 256°
2026-05-04 09:37 51.45420 -0.69780 4477 ft 265 kts 269°
2026-05-04 09:38 51.45424 -0.72773 4899 ft 270 kts 272°
2026-05-04 09:38 51.45453 -0.75790 5469 ft 271 kts 271°
2026-05-04 09:38 51.45448 -0.78787 5951 ft 271 kts 270°
2026-05-04 09:38 51.45409 -0.81828 5984 ft 274 kts 269°
2026-05-04 09:39 51.45353 -0.84873 5996 ft 273 kts 269°
2026-05-04 09:39 51.45296 -0.87921 6000 ft 272 kts 271°
2026-05-04 09:39 51.45509 -0.90930 5998 ft 272 kts 282°
2026-05-04 09:39 51.45904 -0.93920 6008 ft 276 kts 283°
2026-05-04 09:40 51.46292 -0.96954 6091 ft 279 kts 282°
2026-05-04 09:40 51.46662 -1.00004 6695 ft 278 kts 281°
2026-05-04 09:40 51.47024 -1.03048 7306 ft 277 kts 281°
2026-05-04 09:40 51.47383 -1.06102 7820 ft 280 kts 282°
2026-05-04 09:41 51.47743 -1.09190 8297 ft 283 kts 281°
2026-05-04 09:42 51.53829 -1.28958 10624 ft 331 kts 317°
2026-05-04 09:43 51.55557 -1.31552 10769 ft 350 kts 317°
2026-05-04 09:43 51.57380 -1.34304 10978 ft 366 kts 316°
2026-05-04 09:43 51.59241 -1.37165 11402 ft 374 kts 313°
2026-05-04 09:43 51.60927 -1.40400 11961 ft 380 kts 305°
2026-05-04 09:44 51.62353 -1.43970 12722 ft 380 kts 297°
2026-05-04 09:44 51.63594 -1.47764 13446 ft 382 kts 296°
2026-05-04 09:44 51.64816 -1.51539 14068 ft 386 kts 296°
2026-05-04 09:46 51.61319 -5.29893 31381 ft 459 kts 250°
2026-05-04 09:46 51.53450 -6.43283 9578 ft 627 kts 279°
2026-05-04 09:46 51.56060 -6.47369 6821 ft 568 kts 344°
2026-05-04 09:47 51.59725 -6.49088 8793 ft 534 kts 345°
2026-05-04 09:47 51.63188 -6.50744 9712 ft 515 kts 343°
2026-05-04 09:49 51.80864 -6.71897 18331 ft 415 kts 316°
2026-05-04 09:49 51.82207 -6.74110 18790 ft 415 kts 316°
2026-05-04 09:49 51.84243 -6.77469 19296 ft 420 kts 316°
2026-05-04 09:51 51.96758 -6.98500 21870 ft 442 kts 316°
2026-05-04 09:51 51.98888 -7.02115 22290 ft 445 kts 316°
2026-05-04 09:51 52.01036 -7.05766 22716 ft 447 kts 316°
2026-05-04 09:51 52.03185 -7.09427 23166 ft 448 kts 317°
2026-05-04 09:52 52.05336 -7.13097 23627 ft 449 kts 317°
2026-05-04 09:52 52.07494 -7.16781 24017 ft 452 kts 317°
2026-05-04 09:52 52.09672 -7.20503 24384 ft 455 kts 317°
2026-05-04 09:52 52.11861 -7.24247 24733 ft 458 kts 318°
2026-05-04 09:53 52.14067 -7.28026 25067 ft 461 kts 318°
2026-05-04 09:53 52.16282 -7.31829 25404 ft 463 kts 318°
2026-05-04 09:53 52.18502 -7.35650 25737 ft 466 kts 318°
2026-05-04 09:53 52.20741 -7.39508 26051 ft 468 kts 319°
2026-05-04 09:54 52.22952 -7.43324 26382 ft 470 kts 319°
2026-05-04 09:54 52.25212 -7.47229 26665 ft 472 kts 319°
2026-05-04 09:54 52.27469 -7.51139 26965 ft 475 kts 319°
2026-05-04 09:54 52.29720 -7.55038 27247 ft 477 kts 319°
2026-05-04 09:55 52.31998 -7.58996 27502 ft 479 kts 319°
2026-05-04 09:55 52.34287 -7.62977 27769 ft 482 kts 319°
2026-05-04 09:55 52.36588 -7.66983 28028 ft 483 kts 319°
2026-05-04 09:55 52.38900 -7.71017 28286 ft 485 kts 319°
2026-05-04 09:56 52.41213 -7.75057 28503 ft 487 kts 319°
2026-05-04 09:56 52.43540 -7.79128 28739 ft 488 kts 319°
2026-05-04 09:56 52.45865 -7.83209 28970 ft 490 kts 319°
2026-05-04 09:56 52.48197 -7.87312 29154 ft 491 kts 320°
2026-05-04 09:57 52.50509 -7.91377 29347 ft 493 kts 319°
2026-05-04 09:57 52.52848 -7.95500 29529 ft 494 kts 320°
2026-05-04 09:57 52.55189 -7.99635 29784 ft 493 kts 320°
2026-05-04 09:57 52.57521 -8.03762 30065 ft 492 kts 320°
2026-05-04 09:58 52.59846 -8.07882 30408 ft 490 kts 320°
2026-05-04 09:58 52.62160 -8.11992 30674 ft 489 kts 319°
2026-05-04 09:58 52.64474 -8.16106 30853 ft 490 kts 319°
2026-05-04 10:00 52.80541 -8.44843 32438 ft 485 kts 318°
2026-05-04 10:00 52.82828 -8.48963 32653 ft 485 kts 318°
2026-05-04 10:02 53.11075 -9.00415 34872 ft 481 kts 317°
2026-05-04 10:04 53.72691 -10.16546 36098 ft 474 kts 314°
2026-05-04 10:04 53.89963 -10.50111 36099 ft 471 kts 314°
2026-05-04 10:05 54.07061 -10.83789 36111 ft 470 kts 313°
2026-05-04 10:05 54.23959 -11.17540 36202 ft 465 kts 313°
2026-05-04 10:06 54.40665 -11.51366 36095 ft 464 kts 312°
2026-05-04 10:06 54.57127 -11.85165 36108 ft 462 kts 312°
2026-05-04 10:08 54.73906 -12.20100 36120 ft 461 kts 311°
2026-05-04 10:08 54.77981 -12.28663 36121 ft 461 kts 311°
2026-05-04 10:09 54.82031 -12.37197 36119 ft 460 kts 311°
2026-05-04 10:09 54.86094 -12.45791 36121 ft 460 kts 310°
2026-05-04 10:10 54.90127 -12.54351 36119 ft 459 kts 310°
2026-05-04 10:10 54.94136 -12.62893 36115 ft 458 kts 310°
2026-05-04 10:11 54.98158 -12.71493 36123 ft 457 kts 310°
2026-05-04 10:11 55.02167 -12.80090 36120 ft 456 kts 310°
2026-05-04 10:12 55.06163 -12.88692 36115 ft 456 kts 310°
2026-05-04 10:12 55.10151 -12.97308 36119 ft 456 kts 309°
2026-05-04 10:13 55.14124 -13.05933 36120 ft 456 kts 309°
2026-05-04 10:13 55.18082 -13.14530 36112 ft 455 kts 309°
2026-05-04 10:14 55.32850 -13.46927 36086 ft 455 kts 309°
2026-05-04 10:16 55.94494 -14.87055 36068 ft 449 kts 307°
2026-05-04 10:16 56.01171 -15.04941 36067 ft 447 kts 293°
2026-05-04 10:17 56.03482 -15.15166 36075 ft 446 kts 291°
2026-05-04 10:19 56.12589 -15.56385 36093 ft 444 kts 291°
2026-05-04 10:19 56.14851 -15.66696 36104 ft 444 kts 291°
2026-05-04 10:20 56.17090 -15.76969 36102 ft 446 kts 290°
2026-05-04 10:20 56.19351 -15.87356 36100 ft 446 kts 290°
2026-05-04 10:21 56.21603 -15.97780 36103 ft 447 kts 290°
2026-05-04 10:21 56.23850 -16.08240 36103 ft 448 kts 290°
2026-05-04 10:22 56.27188 -16.23880 36105 ft 448 kts 290°
2026-05-04 10:23 56.29412 -16.34364 36099 ft 448 kts 290°
2026-05-04 10:25 56.38165 -16.76147 36098 ft 445 kts 290°
2026-05-04 10:25 56.40332 -16.86630 36102 ft 444 kts 290°
2026-05-04 10:26 56.42472 -16.97030 36102 ft 445 kts 290°
2026-05-04 10:26 56.44622 -17.07539 36103 ft 445 kts 290°
2026-05-04 10:27 56.46767 -17.18056 36102 ft 446 kts 289°
2026-05-04 10:27 56.48901 -17.28606 36101 ft 446 kts 290°
2026-05-04 10:28 56.51029 -17.39174 36103 ft 447 kts 289°
2026-05-04 10:28 56.53146 -17.49751 36102 ft 447 kts 289°
2026-05-04 10:29 56.55247 -17.60296 36103 ft 447 kts 289°
2026-05-04 10:29 56.57357 -17.70935 36101 ft 448 kts 289°
2026-05-04 10:30 56.59452 -17.81565 36102 ft 448 kts 289°
2026-05-04 10:30 56.61548 -17.92253 36102 ft 449 kts 289°
2026-05-04 10:31 56.63636 -18.02961 36100 ft 449 kts 289°
2026-05-04 10:32 56.70843 -18.40411 36102 ft 449 kts 289°
2026-05-04 10:33 56.72888 -18.51147 36098 ft 449 kts 289°
2026-05-04 10:33 56.74923 -18.61907 36101 ft 448 kts 288°
2026-05-04 10:34 56.76941 -18.72635 36102 ft 447 kts 288°
2026-05-04 10:34 56.78949 -18.83372 36101 ft 447 kts 288°
2026-05-04 10:35 56.80930 -18.94040 36102 ft 447 kts 288°
2026-05-04 10:35 56.82920 -19.04823 36099 ft 447 kts 288°
2026-05-04 10:36 56.84565 -19.13765 36103 ft 447 kts 288°
2026-05-04 10:36 56.86542 -19.24572 36102 ft 448 kts 288°
2026-05-04 10:37 56.88509 -19.35389 36104 ft 448 kts 288°
2026-05-04 10:37 56.90457 -19.46175 36101 ft 449 kts 288°
2026-05-04 10:39 56.97240 -19.84235 36103 ft 449 kts 288°
2026-05-04 10:40 56.99149 -19.95144 36099 ft 448 kts 285°
2026-05-04 10:40 57.00323 -20.06284 36100 ft 448 kts 275°
2026-05-04 10:41 57.00745 -20.17697 36103 ft 448 kts 274°
2026-05-04 10:41 57.01158 -20.29079 36103 ft 448 kts 274°
2026-05-04 10:42 57.01574 -20.40420 36120 ft 448 kts 274°
2026-05-04 10:42 57.01986 -20.51856 36131 ft 448 kts 274°
2026-05-04 10:43 57.02389 -20.63262 36123 ft 448 kts 274°
2026-05-04 10:45 57.03898 -21.08992 36127 ft 450 kts 274°
2026-05-04 10:45 57.04253 -21.20455 36127 ft 450 kts 274°
2026-05-04 10:46 57.04594 -21.31887 36127 ft 450 kts 274°
2026-05-04 10:46 57.04927 -21.43417 36135 ft 451 kts 274°
2026-05-04 10:47 57.05247 -21.54860 36132 ft 451 kts 273°
2026-05-04 10:47 57.05559 -21.66368 36127 ft 451 kts 273°
2026-05-04 10:49 57.06699 -22.12402 36135 ft 450 kts 273°
2026-05-04 10:50 57.06958 -22.23907 36129 ft 451 kts 273°
2026-05-04 10:52 57.07884 -22.69933 36136 ft 452 kts 272°
2026-05-04 10:52 57.08091 -22.81511 36133 ft 452 kts 272°
2026-05-04 10:54 57.08811 -23.27729 36177 ft 452 kts 272°
2026-05-04 10:56 57.09363 -23.73967 36169 ft 454 kts 272°
2026-05-04 10:57 57.09473 -23.85528 36167 ft 454 kts 272°
2026-05-04 10:57 57.09572 -23.97148 36169 ft 454 kts 271°
2026-05-04 10:58 57.09661 -24.08780 36173 ft 454 kts 271°
2026-05-04 10:58 57.09740 -24.20402 36177 ft 454 kts 271°
2026-05-04 10:59 57.09809 -24.31935 36174 ft 453 kts 271°
2026-05-04 10:59 57.09868 -24.43562 36178 ft 453 kts 271°
2026-05-04 11:00 57.09914 -24.55169 36173 ft 453 kts 271°
2026-05-04 11:02 57.09993 -25.01508 36176 ft 454 kts 271°
2026-05-04 11:05 57.09681 -25.88638 36202 ft 454 kts 270°
2026-05-04 11:06 57.09594 -26.00199 36203 ft 454 kts 270°
2026-05-04 11:06 57.09496 -26.11814 36202 ft 454 kts 270°
2026-05-04 11:10 57.08509 -26.93083 36212 ft 454 kts 269°
2026-05-04 11:12 57.07711 -27.39449 36245 ft 454 kts 269°
2026-05-04 11:12 57.07485 -27.51051 36248 ft 454 kts 268°
2026-05-04 11:13 57.07247 -27.62681 36251 ft 455 kts 268°
2026-05-04 11:13 57.06998 -27.74225 36247 ft 455 kts 268°
2026-05-04 11:14 57.06740 -27.85849 36250 ft 455 kts 268°
2026-05-04 11:16 57.05597 -28.32264 36245 ft 455 kts 268°
2026-05-04 11:16 57.05287 -28.43806 36250 ft 455 kts 268°
2026-05-04 11:17 57.04960 -28.55412 36250 ft 455 kts 268°
2026-05-04 11:19 57.03557 -29.01795 36251 ft 455 kts 267°
2026-05-04 11:19 57.03179 -29.13384 36245 ft 455 kts 267°
2026-05-04 11:20 57.02791 -29.24970 36244 ft 455 kts 267°
2026-05-04 11:20 57.02392 -29.36587 36247 ft 455 kts 267°
2026-05-04 11:22 57.00682 -29.82908 36259 ft 456 kts 266°
2026-05-04 11:23 57.00228 -29.94529 36258 ft 457 kts 266°
2026-05-04 11:25 57.01303 -30.33191 36258 ft 456 kts 274°
2026-05-04 11:25 57.01738 -30.44836 36257 ft 456 kts 274°
2026-05-04 11:27 57.03528 -30.97117 36259 ft 457 kts 274°
2026-05-04 11:28 57.03899 -31.08776 36259 ft 457 kts 274°
2026-05-04 11:28 57.04257 -31.20454 36242 ft 458 kts 273°
2026-05-04 11:29 57.04607 -31.32175 36171 ft 460 kts 273°
2026-05-04 11:29 57.04943 -31.43922 36167 ft 460 kts 273°
2026-05-04 11:33 57.07003 -32.25779 36167 ft 460 kts 272°
2026-05-04 11:33 57.07255 -32.37500 36165 ft 460 kts 272°
2026-05-04 11:34 57.07491 -32.49249 36166 ft 460 kts 272°
2026-05-04 11:34 57.07721 -32.60967 36166 ft 461 kts 272°
2026-05-04 11:35 57.07941 -32.72772 36166 ft 461 kts 272°
2026-05-04 11:35 57.08150 -32.84584 36165 ft 461 kts 272°
2026-05-04 11:36 57.08345 -32.96383 36164 ft 462 kts 272°
2026-05-04 11:36 57.08530 -33.08120 36168 ft 462 kts 272°
2026-05-04 11:37 57.08704 -33.19939 36165 ft 462 kts 272°
2026-05-04 11:37 57.08870 -33.31767 36165 ft 463 kts 272°
2026-05-04 11:38 57.09025 -33.43630 36164 ft 463 kts 271°
2026-05-04 11:38 57.09165 -33.55387 36164 ft 463 kts 271°
2026-05-04 11:39 57.09297 -33.67274 36165 ft 463 kts 271°
2026-05-04 11:41 57.09664 -34.08742 36156 ft 464 kts 271°
2026-05-04 11:41 57.09745 -34.20559 36159 ft 465 kts 271°
2026-05-04 11:42 57.09815 -34.32426 36157 ft 465 kts 271°
2026-05-04 11:42 57.09874 -34.44328 36156 ft 465 kts 271°
2026-05-04 11:43 57.09923 -34.56218 36157 ft 465 kts 271°
2026-05-04 11:43 57.09958 -34.68121 36157 ft 465 kts 271°
2026-05-04 11:44 57.09981 -34.80010 36158 ft 465 kts 271°
2026-05-04 11:44 57.09992 -34.91876 36158 ft 465 kts 271°
2026-05-04 11:45 57.09996 -35.03795 36156 ft 465 kts 270°
2026-05-04 11:45 57.09986 -35.15703 36157 ft 465 kts 270°
2026-05-04 11:46 57.09963 -35.27559 36157 ft 465 kts 270°
2026-05-04 11:46 57.09933 -35.39477 36155 ft 465 kts 270°
2026-05-04 11:47 57.09891 -35.51380 36157 ft 465 kts 270°
2026-05-04 11:47 57.09838 -35.63281 36151 ft 465 kts 270°
2026-05-04 11:48 57.09771 -35.75167 36149 ft 465 kts 270°
2026-05-04 11:48 57.09694 -35.87067 36147 ft 465 kts 270°
2026-05-04 11:49 57.09607 -35.98975 36148 ft 465 kts 270°
2026-05-04 11:49 57.09508 -36.10830 36147 ft 466 kts 270°
2026-05-04 11:50 57.09398 -36.22767 36148 ft 466 kts 270°
2026-05-04 11:50 57.09273 -36.34716 36148 ft 467 kts 270°
2026-05-04 11:51 57.09140 -36.46582 36150 ft 467 kts 270°
2026-05-04 11:51 57.08998 -36.58538 36147 ft 467 kts 269°
2026-05-04 11:52 57.08839 -36.70475 36151 ft 467 kts 269°
2026-05-04 11:52 57.08671 -36.82417 36155 ft 466 kts 269°
2026-05-04 11:53 57.08494 -36.94241 36157 ft 466 kts 269°
2026-05-04 11:53 57.08304 -37.06143 36156 ft 465 kts 269°
2026-05-04 11:55 57.07432 -37.53780 36144 ft 466 kts 269°
2026-05-04 11:56 57.07185 -37.65685 36134 ft 466 kts 269°
2026-05-04 11:56 57.06929 -37.77518 36133 ft 466 kts 269°
2026-05-04 11:57 57.06656 -37.89446 36144 ft 467 kts 269°
2026-05-04 11:57 57.06377 -38.01374 36129 ft 467 kts 269°
2026-05-04 11:58 57.06086 -38.13278 36143 ft 466 kts 268°
2026-05-04 11:58 57.05782 -38.25199 36131 ft 466 kts 268°
2026-05-04 11:59 57.05467 -38.37095 36137 ft 466 kts 268°
2026-05-04 11:59 57.05147 -38.48913 36144 ft 466 kts 268°
2026-05-04 12:00 57.04854 -38.59333 36142 ft 466 kts 268°
2026-05-04 12:00 57.04502 -38.71223 36141 ft 466 kts 268°
2026-05-04 12:01 57.04144 -38.83082 36131 ft 466 kts 268°
2026-05-04 12:02 57.02806 -39.24613 36136 ft 465 kts 267°
2026-05-04 12:03 57.02396 -39.36466 36129 ft 465 kts 267°
2026-05-04 12:03 57.01977 -39.48333 36461 ft 462 kts 268°
2026-05-04 12:04 57.01765 -39.54201 36724 ft 460 kts 268°
2026-05-04 12:04 57.01550 -39.60057 36972 ft 457 kts 268°
2026-05-04 12:04 57.01337 -39.65786 37225 ft 453 kts 268°
2026-05-04 12:04 57.01043 -39.73604 37504 ft 450 kts 268°
2026-05-04 12:05 57.00162 -39.96224 37799 ft 453 kts 268°
2026-05-04 12:05 56.99423 -40.11560 38062 ft 451 kts 265°
2026-05-04 12:05 56.97281 -40.45976 38224 ft 447 kts 265°
2026-05-04 12:06 56.94967 -40.82592 38216 ft 448 kts 265°
2026-05-04 12:06 56.94226 -40.93955 38132 ft 450 kts 265°
2026-05-04 12:07 56.93479 -41.05251 38134 ft 449 kts 265°
2026-05-04 12:07 56.92719 -41.16588 38128 ft 448 kts 265°
2026-05-04 12:08 56.91951 -41.27898 38129 ft 448 kts 265°
2026-05-04 12:08 56.91172 -41.39227 38130 ft 447 kts 265°
2026-05-04 12:09 56.90517 -41.48628 38130 ft 447 kts 265°
2026-05-04 12:09 56.89719 -41.59916 38126 ft 447 kts 265°
2026-05-04 12:10 56.88916 -41.71120 38122 ft 447 kts 265°
2026-05-04 12:10 56.88099 -41.82394 38120 ft 447 kts 265°
2026-05-04 12:11 56.87274 -41.93660 38120 ft 447 kts 264°
2026-05-04 12:11 56.86456 -42.04681 38119 ft 447 kts 264°
2026-05-04 12:12 56.85606 -42.15977 38120 ft 446 kts 264°
2026-05-04 12:12 56.84750 -42.27221 38120 ft 446 kts 264°
2026-05-04 12:14 56.81232 -42.72040 38121 ft 445 kts 264°
2026-05-04 12:15 56.80328 -42.83234 38120 ft 445 kts 264°
2026-05-04 12:15 56.79415 -42.94414 38120 ft 445 kts 264°
2026-05-04 12:16 56.78496 -43.05516 38120 ft 445 kts 264°
2026-05-04 12:16 56.77563 -43.16674 38118 ft 445 kts 264°
2026-05-04 12:17 56.76620 -43.27840 38113 ft 445 kts 264°
2026-05-04 12:17 56.75664 -43.39007 38108 ft 445 kts 264°
2026-05-04 12:18 56.74700 -43.50169 38111 ft 445 kts 264°
2026-05-04 12:18 56.73733 -43.61245 38111 ft 445 kts 264°
2026-05-04 12:19 56.72746 -43.72402 38109 ft 446 kts 264°
2026-05-04 12:19 56.71751 -43.83555 38114 ft 445 kts 264°
2026-05-04 12:20 56.70752 -43.94600 38113 ft 445 kts 264°
2026-05-04 12:20 56.69741 -44.05743 38115 ft 445 kts 264°
2026-05-04 12:21 56.68719 -44.16863 38107 ft 444 kts 264°
2026-05-04 12:21 56.67694 -44.27856 38109 ft 443 kts 263°
2026-05-04 12:22 56.66651 -44.38912 38062 ft 442 kts 263°
2026-05-04 12:22 56.65609 -44.49920 38050 ft 441 kts 263°
2026-05-04 12:23 56.64568 -44.60825 38043 ft 439 kts 263°
2026-05-04 12:23 56.63515 -44.71734 38034 ft 436 kts 263°
2026-05-04 12:24 56.62456 -44.82572 38038 ft 434 kts 263°
2026-05-04 12:24 56.61398 -44.93292 38039 ft 432 kts 263°
2026-05-04 12:25 56.60328 -45.04029 38035 ft 431 kts 263°
2026-05-04 12:25 56.59256 -45.14715 38031 ft 430 kts 263°
2026-05-04 12:26 56.58176 -45.25384 38032 ft 429 kts 262°
2026-05-04 12:26 56.57090 -45.36012 38027 ft 428 kts 262°
2026-05-04 12:27 56.56005 -45.46550 38023 ft 426 kts 262°
2026-05-04 12:27 56.54907 -45.57104 38004 ft 423 kts 262°
2026-05-04 12:28 56.53809 -45.67556 37989 ft 421 kts 262°
2026-05-04 12:28 56.52708 -45.77967 37989 ft 419 kts 262°
2026-05-04 12:29 56.51606 -45.88274 37990 ft 418 kts 262°
2026-05-04 12:29 56.50496 -45.98592 37987 ft 417 kts 262°
2026-05-04 12:30 56.49381 -46.08880 37986 ft 416 kts 261°
2026-05-04 12:30 56.48257 -46.19157 37981 ft 416 kts 261°
2026-05-04 12:31 56.47125 -46.29424 37983 ft 416 kts 261°
2026-05-04 12:31 56.45984 -46.39687 37961 ft 417 kts 261°
2026-05-04 12:32 56.44257 -46.55071 37977 ft 419 kts 261°
2026-05-04 12:33 56.43085 -46.65398 37968 ft 420 kts 261°
2026-05-04 12:33 56.41901 -46.75760 37955 ft 422 kts 260°
2026-05-04 12:34 56.40703 -46.86150 37958 ft 424 kts 260°
2026-05-04 12:34 56.39490 -46.96611 37964 ft 426 kts 260°
2026-05-04 12:35 56.38271 -47.07018 37961 ft 427 kts 260°
2026-05-04 12:35 56.37033 -47.17508 37942 ft 428 kts 259°
2026-05-04 12:36 56.35783 -47.28029 37944 ft 429 kts 259°
2026-05-04 12:36 56.34526 -47.38518 37947 ft 430 kts 259°
2026-05-04 12:37 56.33250 -47.49066 37932 ft 431 kts 259°
2026-05-04 12:37 56.31965 -47.59629 37937 ft 432 kts 258°
2026-05-04 12:38 56.30678 -47.70144 37930 ft 432 kts 258°
2026-05-04 12:38 56.29373 -47.80712 37926 ft 432 kts 258°
2026-05-04 12:39 56.28056 -47.91282 37928 ft 433 kts 258°
2026-05-04 12:39 56.26730 -48.01847 37918 ft 433 kts 258°
2026-05-04 12:40 56.25392 -48.12430 37916 ft 433 kts 258°
2026-05-04 12:40 56.24048 -48.22991 37907 ft 433 kts 257°
2026-05-04 12:41 56.22703 -48.33498 37907 ft 433 kts 257°
2026-05-04 12:41 56.21337 -48.44068 37900 ft 433 kts 257°
2026-05-04 12:42 56.19975 -48.54529 37898 ft 433 kts 257°
2026-05-04 12:42 56.18594 -48.65071 37894 ft 433 kts 257°
2026-05-04 12:43 56.17203 -48.75602 37887 ft 433 kts 257°
2026-05-04 12:43 56.15804 -48.86117 37886 ft 433 kts 257°
2026-05-04 12:44 56.14392 -48.96657 37880 ft 433 kts 256°
2026-05-04 12:44 56.12981 -49.07122 37877 ft 434 kts 256°
2026-05-04 12:45 56.11552 -49.17661 37875 ft 435 kts 256°
2026-05-04 12:45 56.10110 -49.28199 37858 ft 436 kts 255°
2026-05-04 12:46 56.08661 -49.38698 37864 ft 437 kts 255°
2026-05-04 12:46 56.07191 -49.49293 37851 ft 439 kts 255°
2026-05-04 12:47 56.05709 -49.59909 37847 ft 440 kts 255°
2026-05-04 12:47 56.04207 -49.70550 37848 ft 441 kts 255°
2026-05-04 12:48 56.02705 -49.81153 37841 ft 443 kts 254°
2026-05-04 12:48 56.01180 -49.91842 37836 ft 444 kts 254°
2026-05-04 12:49 55.99472 -50.02445 37820 ft 443 kts 248°
2026-05-04 12:49 55.97046 -50.12549 37826 ft 442 kts 245°
2026-05-04 12:50 55.94589 -50.22622 37812 ft 442 kts 245°
2026-05-04 12:50 55.92133 -50.32679 37810 ft 441 kts 245°
2026-05-04 12:51 55.89693 -50.42668 37808 ft 441 kts 245°
2026-05-04 12:51 55.87240 -50.52671 37796 ft 439 kts 245°
2026-05-04 12:52 55.84801 -50.62578 37789 ft 439 kts 245°
2026-05-04 12:52 55.82344 -50.72520 37786 ft 438 kts 244°
2026-05-04 12:53 55.79870 -50.82473 37777 ft 438 kts 244°
2026-05-04 12:53 55.77417 -50.92309 37768 ft 438 kts 244°
2026-05-04 12:54 55.74935 -51.02204 37759 ft 439 kts 244°
2026-05-04 12:54 55.72437 -51.12124 37753 ft 440 kts 244°
2026-05-04 12:55 55.69927 -51.22042 37745 ft 440 kts 243°
2026-05-04 12:55 55.67406 -51.31959 37742 ft 441 kts 243°
2026-05-04 12:56 55.64888 -51.41830 37731 ft 441 kts 243°
2026-05-04 12:56 55.62344 -51.51759 37726 ft 442 kts 243°
2026-05-04 12:57 55.59810 -51.61603 37714 ft 442 kts 243°
2026-05-04 12:57 55.57251 -51.71505 37712 ft 442 kts 243°
2026-05-04 12:58 55.54678 -51.81400 37698 ft 443 kts 243°
2026-05-04 12:58 55.52530 -51.89627 37687 ft 443 kts 243°
2026-05-04 12:59 55.49945 -51.99505 37684 ft 444 kts 243°
2026-05-04 12:59 55.47348 -52.09377 37677 ft 444 kts 242°
2026-05-04 13:00 55.44734 -52.19274 37636 ft 445 kts 242°
2026-05-04 13:00 55.42115 -52.29147 37631 ft 445 kts 242°
2026-05-04 13:01 55.39504 -52.38941 37615 ft 444 kts 242°
2026-05-04 13:01 55.36874 -52.48770 37618 ft 443 kts 242°
2026-05-04 13:02 55.34239 -52.58566 37619 ft 443 kts 241°
2026-05-04 13:02 55.31601 -52.68346 37601 ft 442 kts 241°
2026-05-04 13:03 55.28958 -52.78093 37596 ft 442 kts 241°
2026-05-04 13:03 55.26304 -52.87845 37584 ft 443 kts 240°
2026-05-04 13:04 55.23644 -52.97573 37579 ft 443 kts 240°
2026-05-04 13:04 55.20970 -53.07306 37571 ft 444 kts 240°
2026-05-04 13:05 55.18289 -53.17028 37560 ft 444 kts 240°
2026-05-04 13:05 55.15609 -53.26707 37550 ft 444 kts 240°
2026-05-04 13:06 55.12908 -53.36425 37554 ft 445 kts 240°
2026-05-04 13:06 55.10197 -53.46125 37552 ft 445 kts 240°
2026-05-04 13:07 55.07475 -53.55827 37553 ft 445 kts 239°
2026-05-04 13:07 55.04744 -53.65530 37554 ft 445 kts 239°
2026-05-04 13:08 55.02003 -53.75222 37552 ft 445 kts 239°
2026-05-04 13:08 54.99268 -53.84851 37552 ft 445 kts 239°
2026-05-04 13:09 54.96506 -53.94536 37546 ft 446 kts 239°
2026-05-04 13:09 54.87106 -54.27208 37532 ft 446 kts 238°
2026-05-04 13:10 54.81644 -54.45977 37549 ft 447 kts 238°
2026-05-04 13:10 54.78830 -54.55587 37571 ft 447 kts 238°
2026-05-04 13:11 54.76018 -54.65153 37581 ft 448 kts 238°
2026-05-04 13:11 54.73176 -54.74785 37573 ft 450 kts 238°
2026-05-04 13:12 54.64522 -55.03894 37590 ft 451 kts 237°
2026-05-04 13:12 54.41084 -55.80944 37567 ft 455 kts 236°
2026-05-04 13:13 54.17015 -56.57478 37542 ft 458 kts 235°
2026-05-04 13:13 54.05307 -57.41490 37583 ft 503 kts 275°
2026-05-04 13:13 54.07893 -57.87437 37380 ft 480 kts 268°
2026-05-04 13:14 54.09905 -58.33045 37495 ft 481 kts 269°
2026-05-04 13:14 54.11838 -58.78887 37631 ft 490 kts 268°
2026-05-04 13:14 54.13623 -59.25805 37662 ft 498 kts 269°
2026-05-04 13:15 54.16690 -60.20745 37491 ft 496 kts 268°
2026-05-04 13:15 54.18955 -61.13674 37555 ft 488 kts 267°
2026-05-04 13:16 54.20508 -62.07418 37632 ft 503 kts 267°
2026-05-04 13:16 54.21354 -63.03056 37519 ft 496 kts 266°
2026-05-04 13:17 54.21431 -63.96128 37578 ft 492 kts 266°
2026-05-04 13:17 54.20797 -64.90653 37672 ft 506 kts 265°
2026-05-04 13:18 54.19407 -65.85473 37542 ft 492 kts 264°
2026-05-04 13:18 54.17299 -66.78647 37704 ft 493 kts 263°
2026-05-04 13:19 54.16833 -66.95717 37679 ft 496 kts 263°
2026-05-04 13:19 54.16675 -67.07519 37678 ft 497 kts 267°
2026-05-04 13:20 54.16936 -67.19332 37671 ft 497 kts 269°
2026-05-04 13:20 54.17228 -67.31039 37675 ft 496 kts 268°
2026-05-04 13:21 54.17447 -67.42781 37675 ft 493 kts 268°
2026-05-04 13:21 54.17616 -67.54476 37675 ft 491 kts 268°
2026-05-04 13:22 54.17759 -67.66130 37672 ft 490 kts 268°
2026-05-04 13:22 54.17901 -67.77752 37676 ft 489 kts 268°
2026-05-04 13:23 54.18033 -67.89324 37676 ft 489 kts 267°
2026-05-04 13:23 54.18149 -68.00924 37675 ft 489 kts 267°
2026-05-04 13:24 54.18269 -68.12543 37680 ft 489 kts 267°
2026-05-04 13:24 54.18364 -68.24117 37675 ft 490 kts 267°
2026-05-04 13:25 54.18477 -68.41565 37675 ft 490 kts 267°
2026-05-04 13:25 54.18548 -68.53223 37667 ft 491 kts 267°
2026-05-04 13:26 54.18612 -68.64892 37667 ft 492 kts 267°
2026-05-04 13:26 54.18661 -68.76507 37663 ft 491 kts 266°
2026-05-04 13:27 54.18699 -68.88158 37669 ft 490 kts 266°
2026-05-04 13:27 54.18722 -68.99706 37663 ft 488 kts 266°
2026-05-04 13:28 54.18738 -69.11267 37666 ft 486 kts 266°
2026-05-04 13:28 54.18739 -69.22834 37665 ft 486 kts 266°
2026-05-04 13:29 54.18731 -69.34374 37668 ft 486 kts 266°
2026-05-04 13:29 54.18713 -69.45924 37672 ft 485 kts 266°
2026-05-04 13:30 54.18645 -69.69076 37672 ft 483 kts 266°
2026-05-04 13:30 54.17933 -70.60770 37672 ft 480 kts 265°
2026-05-04 13:31 54.16832 -71.34756 37674 ft 480 kts 265°
2026-05-04 13:31 54.16462 -71.54592 37677 ft 481 kts 265°
2026-05-04 13:32 54.16234 -71.66009 37674 ft 482 kts 265°
2026-05-04 13:32 54.15996 -71.77468 37675 ft 483 kts 265°
2026-05-04 13:33 54.15747 -71.88927 37675 ft 483 kts 265°
2026-05-04 13:33 54.15485 -72.00422 37677 ft 484 kts 265°
2026-05-04 13:34 54.15217 -72.11837 37676 ft 485 kts 265°
2026-05-04 13:34 54.14932 -72.23342 37675 ft 485 kts 265°
2026-05-04 13:35 54.14484 -72.40594 37676 ft 484 kts 265°
2026-05-04 13:36 54.14174 -72.52036 37687 ft 484 kts 265°
2026-05-04 13:36 54.13856 -72.63411 37694 ft 483 kts 264°
2026-05-04 13:37 54.13526 -72.74890 37679 ft 483 kts 264°
2026-05-04 13:37 54.13182 -72.86345 37688 ft 482 kts 264°
2026-05-04 13:38 54.12831 -72.97688 37681 ft 482 kts 264°
2026-05-04 13:38 54.12467 -73.09124 37685 ft 482 kts 264°
2026-05-04 13:39 54.12094 -73.20538 37684 ft 482 kts 264°
2026-05-04 13:39 54.11710 -73.31928 37684 ft 481 kts 264°
2026-05-04 13:40 54.11316 -73.43311 37686 ft 481 kts 264°
2026-05-04 13:40 54.10912 -73.54709 37685 ft 481 kts 264°
2026-05-04 13:41 54.10493 -73.66043 37683 ft 481 kts 264°
2026-05-04 13:41 54.10064 -73.77425 37689 ft 481 kts 264°
2026-05-04 13:42 54.09409 -73.94442 37686 ft 481 kts 264°
2026-05-04 13:42 54.08955 -74.05839 37685 ft 481 kts 264°
2026-05-04 13:43 54.08570 -74.15284 37683 ft 481 kts 264°
2026-05-04 13:43 54.08095 -74.26668 37682 ft 481 kts 264°
2026-05-04 13:44 54.07612 -74.38057 37676 ft 481 kts 263°
2026-05-04 13:44 54.07116 -74.49436 37675 ft 481 kts 263°
2026-05-04 13:45 54.06611 -74.60778 37678 ft 480 kts 263°
2026-05-04 13:45 54.06102 -74.72031 37674 ft 480 kts 263°
2026-05-04 13:46 54.05574 -74.83365 37676 ft 480 kts 263°
2026-05-04 13:46 54.05036 -74.94717 37672 ft 480 kts 263°
2026-05-04 13:47 54.04490 -75.06036 37660 ft 480 kts 263°
2026-05-04 13:47 54.03933 -75.17347 37666 ft 480 kts 263°
2026-05-04 13:48 54.03364 -75.28667 37661 ft 479 kts 263°
2026-05-04 13:48 54.02790 -75.39881 37647 ft 479 kts 263°
2026-05-04 13:49 54.02202 -75.51167 37641 ft 479 kts 263°
2026-05-04 13:49 54.01603 -75.62468 37635 ft 479 kts 263°
2026-05-04 13:50 54.00998 -75.73682 37628 ft 478 kts 263°
2026-05-04 13:50 54.00378 -75.84959 37628 ft 478 kts 263°
2026-05-04 13:51 53.99748 -75.96202 37627 ft 478 kts 263°